{"data":{"norad_id":62819,"intl_designator":"2025-018P","name":"STARLINK-32856","alt_names":[],"object_type":"PAYLOAD","status":"ACTIVE","operator":null,"country":"US","launch_date":"2025-01-24","launch_site_code":"AFWTR","launch_vehicle":null,"mission":null,"orbit_class":"UNKNOWN","rcs_meters":null,"size_class":null,"mass_kg":null,"dimensions":null,"purposes":["comms"],"wikipedia_slug":null,"has_3d_model":false,"image_url":null,"decayed_at":null,"tle_current":{"epoch":"2026-09-21T20:03:04.796352Z","epoch_age_seconds":52864,"freshness":"FRESH","line1":"1 62819U 25018P   26264.83547218  .00016870  00000+0  50928-3 0  9998","line2":"2 62819  53.1585 115.3691 0001137  95.4055 264.7078 15.34400764 93258","mean_motion":15.34400764,"eccentricity":0.0001137,"inclination_deg":53.1585,"raan_deg":115.3691,"arg_perigee_deg":95.4055,"mean_anomaly_deg":264.7078,"bstar":0.00050928,"rev_number":9325,"period_min":93.847711353199,"perigee_km":461.92316616192,"apogee_km":463.47877271617,"semimajor_km":6840.837969439,"source":"CELESTRAK","updated_at":"2026-09-22T09:00:49.669217Z"}}}